Time,TemperatureF,DewpointF,PressureIn,WindDirection,WindDirectionDegrees,WindSpeedMPH,WindSpeedGustMPH,Humidity,HourlyPrecipIn,Conditions,Clouds,dailyrainin,SoftwareType,DateUTC
2013-02-20 00:01:00,26.1,11.7,28.91,West,276,1.4,3.8,50,-99.99,,,-99.99,WSDL version 420,2013-02-20 05:01:00,
2013-02-20 00:03:00,26.1,11.8,28.91,NW,309,1.7,3.6,51,-99.99,,,-99.99,WSDL version 420,2013-02-20 05:03:00,
2013-02-20 00:08:00,26.0,12.0,28.91,WNW,296,2.6,5.6,51,-99.99,,,-99.99,WSDL version 420,2013-02-20 05:08:00,
2013-02-20 00:11:00,25.9,11.9,28.91,WNW,286,2.3,5.6,51,-99.99,,,-99.99,WSDL version 420,2013-02-20 05:11:00,
2013-02-20 00:20:00,25.9,11.9,28.91,WNW,289,1.7,4.0,51,-99.99,,,-99.99,WSDL version 420,2013-02-20 05:20:00,
2013-02-20 00:26:00,25.8,11.9,28.91,WNW,293,1.7,6.0,51,-99.99,,,-99.99,WSDL version 420,2013-02-20 05:26:00,
2013-02-20 00:32:00,25.7,11.8,28.91,SW,222,1.7,4.9,51,-99.99,,,-99.99,WSDL version 420,2013-02-20 05:32:00,
2013-02-20 00:39:00,25.7,11.8,28.91,NW,321,2.8,5.6,51,-99.99,,,-99.99,WSDL version 420,2013-02-20 05:39:00,
2013-02-20 00:45:00,25.7,11.7,28.91,NW,326,2.0,5.6,50,-99.99,,,-99.99,WSDL version 420,2013-02-20 05:45:00,
2013-02-20 00:51:00,25.6,11.2,28.91,WNW,301,2.3,4.9,50,-99.99,,,-99.99,WSDL version 420,2013-02-20 05:51:00,
2013-02-20 01:00:00,25.3,10.6,28.91,WNW,299,1.3,4.9,49,-99.99,,,-99.99,WSDL version 420,2013-02-20 06:00:00,
2013-02-20 01:07:00,25.3,10.2,28.91,West,273,4.2,10.3,48,-99.99,,,-99.99,WSDL version 420,2013-02-20 06:07:00,
2013-02-20 01:13:00,25.3,9.9,28.91,NW,315,2.1,10.3,48,-99.99,,,-99.99,WSDL version 420,2013-02-20 06:13:00,
2013-02-20 01:21:00,25.0,9.5,28.91,NW,312,1.9,5.8,47,-99.99,,,-99.99,WSDL version 420,2013-02-20 06:21:00,
2013-02-20 01:28:00,24.8,9.3,28.91,WNW,286,3.6,5.4,47,-99.99,,,-99.99,WSDL version 420,2013-02-20 06:28:00,
2013-02-20 01:34:00,24.8,9.3,28.94,WNW,301,1.8,5.4,47,-99.99,,,-99.99,WSDL version 420,2013-02-20 06:34:00,
2013-02-20 01:39:00,24.8,9.3,28.94,NW,315,2.9,5.6,47,-99.99,,,-99.99,WSDL version 420,2013-02-20 06:39:00,
2013-02-20 01:50:00,24.6,9.1,28.94,WNW,302,0.3,5.4,47,-99.99,,,-99.99,WSDL version 420,2013-02-20 06:50:00,
2013-02-20 01:56:00,24.6,9.5,28.94,WSW,248,2.2,5.6,48,-99.99,,,-99.99,WSDL version 420,2013-02-20 06:56:00,
2013-02-20 02:02:00,24.4,10.4,28.94,WSW,238,2.3,5.6,51,-99.99,,,-99.99,WSDL version 420,2013-02-20 07:02:00,
2013-02-20 02:08:00,24.4,10.9,28.94,West,270,1.5,4.9,52,-99.99,,,-99.99,WSDL version 420,2013-02-20 07:08:00,
2013-02-20 02:13:00,24.1,10.6,28.94,WSW,248,1.9,3.8,52,-99.99,,,-99.99,WSDL version 420,2013-02-20 07:13:00,
2013-02-20 02:19:00,24.1,11.0,28.94,WSW,248,2.1,3.8,53,-99.99,,,-99.99,WSDL version 420,2013-02-20 07:19:00,
2013-02-20 02:25:00,24.1,11.0,28.94,WSW,248,1.6,4.9,53,-99.99,,,-99.99,WSDL version 420,2013-02-20 07:25:00,
2013-02-20 02:31:00,24.1,11.0,28.94,NW,305,1.7,4.0,53,-99.99,,,-99.99,WSDL version 420,2013-02-20 07:31:00,
2013-02-20 02:37:00,24.3,11.2,28.94,NW,312,2.7,5.8,53,-99.99,,,-99.99,WSDL version 420,2013-02-20 07:37:00,
2013-02-20 02:43:00,24.3,11.2,28.91,West,278,2.3,5.8,53,-99.99,,,-99.99,WSDL version 420,2013-02-20 07:43:00,
2013-02-20 02:49:00,24.3,10.8,28.91,SW,235,2.3,3.6,52,-99.99,,,-99.99,WSDL version 420,2013-02-20 07:49:00,
2013-02-20 02:56:00,24.3,10.8,28.91,NW,304,1.6,3.8,52,-99.99,,,-99.99,WSDL version 420,2013-02-20 07:56:00,
2013-02-20 03:07:00,24.1,10.6,28.91,NW,315,1.3,4.9,52,-99.99,,,-99.99,WSDL version 420,2013-02-20 08:07:00,
2013-02-20 03:13:00,24.1,10.8,28.91,WNW,285,2.2,5.4,53,-99.99,,,-99.99,WSDL version 420,2013-02-20 08:13:00,
2013-02-20 03:20:00,24.0,10.9,28.91,West,281,1.2,5.4,53,-99.99,,,-99.99,WSDL version 420,2013-02-20 08:20:00,
2013-02-20 03:28:00,23.9,10.5,28.94,WSW,241,2.3,4.3,52,-99.99,,,-99.99,WSDL version 420,2013-02-20 08:28:00,
2013-02-20 03:35:00,23.9,10.5,28.94,WNW,293,1.3,4.3,52,-99.99,,,-99.99,WSDL version 420,2013-02-20 08:35:00,
2013-02-20 03:43:00,23.8,10.3,28.94,West,270,3.1,7.4,52,-99.99,,,-99.99,WSDL version 420,2013-02-20 08:43:00,
2013-02-20 03:49:00,23.7,10.3,28.94,WSW,252,2.5,7.4,52,-99.99,,,-99.99,WSDL version 420,2013-02-20 08:49:00,
2013-02-20 03:55:00,23.6,10.2,28.94,West,264,2.7,6.3,52,-99.99,,,-99.99,WSDL version 420,2013-02-20 08:55:00,
2013-02-20 04:01:00,23.5,10.2,28.94,West,262,2.2,6.3,53,-99.99,,,-99.99,WSDL version 420,2013-02-20 09:01:00,
2013-02-20 04:07:00,23.5,10.1,28.94,WSW,248,2.2,6.3,52,-99.99,,,-99.99,WSDL version 420,2013-02-20 09:07:00,
2013-02-20 04:13:00,23.4,10.0,28.94,WNW,293,1.2,6.3,52,-99.99,,,-99.99,WSDL version 420,2013-02-20 09:13:00,
2013-02-20 04:18:00,23.2,9.8,28.94,WSW,248,2.5,5.6,52,-99.99,,,-99.99,WSDL version 420,2013-02-20 09:18:00,
2013-02-20 04:24:00,23.2,9.8,28.94,WSW,248,1.7,5.6,52,-99.99,,,-99.99,WSDL version 420,2013-02-20 09:24:00,
2013-02-20 04:30:00,23.0,9.7,28.94,WNW,293,2.2,4.0,52,-99.99,,,-99.99,WSDL version 420,2013-02-20 09:30:00,
2013-02-20 04:36:00,23.0,9.8,28.94,West,281,3.3,4.0,52,-99.99,,,-99.99,WSDL version 420,2013-02-20 09:36:00,
2013-02-20 04:47:00,22.8,9.8,28.97,WNW,285,1.8,3.8,53,-99.99,,,-99.99,WSDL version 420,2013-02-20 09:47:00,
2013-02-20 04:52:00,22.8,9.8,28.97,West,270,1.7,4.0,53,-99.99,,,-99.99,WSDL version 420,2013-02-20 09:52:00,
2013-02-20 04:58:00,22.8,9.8,28.97,West,280,2.4,3.1,53,-99.99,,,-99.99,WSDL version 420,2013-02-20 09:58:00,
2013-02-20 05:04:00,22.6,9.6,28.94,West,275,2.0,6.3,53,-99.99,,,-99.99,WSDL version 420,2013-02-20 10:04:00,
2013-02-20 05:10:00,22.6,9.6,28.94,WNW,299,2.0,7.6,53,-99.99,,,-99.99,WSDL version 420,2013-02-20 10:10:00,
2013-02-20 05:17:00,22.5,9.8,28.97,WNW,300,2.3,3.8,54,-99.99,,,-99.99,WSDL version 420,2013-02-20 10:17:00,
2013-02-20 05:24:00,22.2,10.0,28.97,West,275,1.7,3.8,55,-99.99,,,-99.99,WSDL version 420,2013-02-20 10:24:00,
2013-02-20 05:32:00,21.9,10.6,28.97,SSW,203,1.3,3.6,57,-99.99,,,-99.99,WSDL version 420,2013-02-20 10:32:00,
2013-02-20 05:39:00,21.9,10.6,-100.00,SW,222,1.7,2.7,57,-99.99,,,-99.99,WSDL version 420,2013-02-20 10:39:00,
2013-02-20 05:45:00,21.7,10.8,28.97,WSW,248,0.9,5.6,59,-99.99,,,-99.99,WSDL version 420,2013-02-20 10:45:00,
2013-02-20 05:52:00,21.6,10.9,28.97,West,281,1.6,3.4,60,-99.99,,,-99.99,WSDL version 420,2013-02-20 10:52:00,
2013-02-20 06:00:00,21.4,11.3,28.97,WSW,248,1.4,6.0,61,-99.99,,,-99.99,WSDL version 420,2013-02-20 11:00:00,
2013-02-20 06:06:00,21.4,10.9,28.97,West,280,2.0,6.0,60,-99.99,,,-99.99,WSDL version 420,2013-02-20 11:06:00,
2013-02-20 06:15:00,21.4,10.9,28.94,WNW,293,1.8,3.4,60,-99.99,,,-99.99,WSDL version 420,2013-02-20 11:15:00,
2013-02-20 06:21:00,21.4,10.9,28.94,West,260,2.3,4.3,60,-99.99,,,-99.99,WSDL version 420,2013-02-20 11:21:00,
2013-02-20 06:27:00,21.4,10.6,-100.00,WSW,248,2.0,4.3,59,-99.99,,,-99.99,WSDL version 420,2013-02-20 11:27:00,
2013-02-20 06:33:00,21.4,10.6,28.97,WNW,283,1.6,4.0,59,-99.99,,,-99.99,WSDL version 420,2013-02-20 11:33:00,
2013-02-20 06:40:00,21.4,10.6,28.97,WSW,248,0.9,3.6,59,-99.99,,,-99.99,WSDL version 420,2013-02-20 11:40:00,
2013-02-20 06:57:00,21.2,10.1,-100.00,WSW,248,1.6,5.6,58,-99.99,,,-99.99,WSDL version 420,2013-02-20 11:57:00,
2013-02-20 07:03:00,21.1,10.0,28.97,WSW,248,2.5,4.9,58,-99.99,,,-99.99,WSDL version 420,2013-02-20 12:03:00,
2013-02-20 07:09:00,21.1,10.0,28.97,WSW,248,1.0,4.9,58,-99.99,,,-99.99,WSDL version 420,2013-02-20 12:09:00,
2013-02-20 07:17:00,21.2,10.1,29.00,WNW,293,2.1,2.9,58,-99.99,,,-99.99,WSDL version 420,2013-02-20 12:17:00,
2013-02-20 07:22:00,21.2,10.1,29.00,NW,315,2.4,4.9,58,-99.99,,,-99.99,WSDL version 420,2013-02-20 12:22:00,
2013-02-20 07:28:00,21.2,10.1,29.00,NW,315,1.3,4.9,58,-99.99,,,-99.99,WSDL version 420,2013-02-20 12:28:00,
2013-02-20 07:34:00,21.2,10.1,29.00,WNW,293,1.6,3.8,58,-99.99,,,-99.99,WSDL version 420,2013-02-20 12:34:00,
2013-02-20 07:40:00,21.2,10.3,29.00,WSW,253,2.3,3.6,59,-99.99,,,-99.99,WSDL version 420,2013-02-20 12:40:00,
2013-02-20 07:46:00,21.2,10.8,29.00,WNW,293,1.5,3.6,60,-99.99,,,-99.99,WSDL version 420,2013-02-20 12:46:00,
2013-02-20 07:54:00,21.2,10.8,29.00,WNW,293,1.6,2.7,60,-99.99,,,-99.99,WSDL version 420,2013-02-20 12:54:00,
2013-02-20 07:59:00,21.4,10.9,29.00,NW,315,0.7,2.5,60,-99.99,,,-99.99,WSDL version 420,2013-02-20 12:59:00,
2013-02-20 08:06:00,21.6,11.4,29.00,WNW,293,1.7,3.6,61,-99.99,,,-99.99,WSDL version 420,2013-02-20 13:06:00,
2013-02-20 08:12:00,21.6,11.3,-100.00,WNW,293,0.6,3.6,60,-99.99,,,-99.99,WSDL version 420,2013-02-20 13:12:00,
2013-02-20 08:18:00,21.5,11.1,29.00,WSW,250,1.6,3.4,60,-99.99,,,-99.99,WSDL version 420,2013-02-20 13:18:00,
2013-02-20 08:24:00,21.4,10.9,-100.00,WSW,248,0.6,3.4,60,-99.99,,,-99.99,WSDL version 420,2013-02-20 13:24:00,
2013-02-20 08:30:00,21.6,11.2,29.00,West,270,1.0,3.1,60,-99.99,,,-99.99,WSDL version 420,2013-02-20 13:30:00,
2013-02-20 08:36:00,21.8,11.5,29.00,WSW,240,0.6,3.4,61,-99.99,,,-99.99,WSDL version 420,2013-02-20 13:36:00,
2013-02-20 08:43:00,22.1,11.9,29.00,WNW,293,1.3,2.0,61,-99.99,,,-99.99,WSDL version 420,2013-02-20 13:43:00,
2013-02-20 08:50:00,22.3,11.8,-100.00,WNW,293,1.2,2.2,60,-99.99,,,-99.99,WSDL version 420,2013-02-20 13:50:00,
2013-02-20 09:00:00,22.1,11.6,29.00,WSW,250,2.5,4.9,60,-99.99,,,-99.99,WSDL version 420,2013-02-20 14:00:00,
2013-02-20 09:06:00,21.9,11.7,29.00,WNW,293,0.0,4.9,61,-99.99,,,-99.99,WSDL version 420,2013-02-20 14:06:00,
2013-02-20 09:13:00,22.1,12.1,29.00,West,270,1.2,2.5,62,-99.99,,,-99.99,WSDL version 420,2013-02-20 14:13:00,
2013-02-20 09:22:00,22.6,13.4,29.00,NW,315,1.2,4.3,64,-99.99,,,-99.99,WSDL version 420,2013-02-20 14:22:00,
2013-02-20 09:29:00,22.6,13.1,-100.00,NNW,338,1.3,2.7,63,-99.99,,,-99.99,WSDL version 420,2013-02-20 14:29:00,
2013-02-20 09:34:00,22.8,13.6,29.00,NNW,338,1.0,2.7,64,-99.99,,,-99.99,WSDL version 420,2013-02-20 14:34:00,
2013-02-20 09:40:00,22.6,13.3,29.00,NNW,338,1.4,2.7,64,-99.99,,,-99.99,WSDL version 420,2013-02-20 14:40:00,
2013-02-20 09:46:00,22.3,13.1,29.03,North,10,3.1,5.6,64,-99.99,,,-99.99,WSDL version 420,2013-02-20 14:46:00,
2013-02-20 09:52:00,21.9,12.7,29.03,NNW,338,1.6,5.6,64,-99.99,,,-99.99,WSDL version 420,2013-02-20 14:52:00,
2013-02-20 09:58:00,22.2,13.5,29.03,North,360,0.9,4.3,66,-99.99,,,-99.99,WSDL version 420,2013-02-20 14:58:00,
2013-02-20 10:03:00,22.3,13.4,29.03,NW,308,3.1,4.5,65,-99.99,,,-99.99,WSDL version 420,2013-02-20 15:03:00,
2013-02-20 10:09:00,22.3,13.3,29.03,NW,311,4.8,7.4,65,-99.99,,,-99.99,WSDL version 420,2013-02-20 15:09:00,
2013-02-20 10:15:00,22.2,11.8,29.03,NNW,330,2.4,7.4,59,-99.99,,,-99.99,WSDL version 420,2013-02-20 15:15:00,
2013-02-20 10:21:00,22.5,11.2,29.03,North,360,3.3,7.4,57,-99.99,,,-99.99,WSDL version 420,2013-02-20 15:21:00,
2013-02-20 10:27:00,22.2,9.7,29.03,NW,325,5.0,8.1,53,-99.99,,,-99.99,WSDL version 420,2013-02-20 15:27:00,
2013-02-20 10:33:00,22.3,9.6,29.03,NW,318,3.2,8.1,54,-99.99,,,-99.99,WSDL version 420,2013-02-20 15:33:00,
2013-02-20 10:38:00,22.8,9.6,-100.00,NW,321,3.6,6.0,52,-99.99,,,-99.99,WSDL version 420,2013-02-20 15:38:00,
2013-02-20 10:44:00,23.8,10.3,29.03,NNW,338,3.6,6.5,52,-99.99,,,-99.99,WSDL version 420,2013-02-20 15:44:00,
2013-02-20 10:50:00,24.9,10.5,29.03,NNW,344,4.9,8.5,49,-99.99,,,-99.99,WSDL version 420,2013-02-20 15:50:00,
2013-02-20 10:56:00,25.2,10.0,29.03,North,354,4.0,10.5,48,-99.99,,,-99.99,WSDL version 420,2013-02-20 15:56:00,
2013-02-20 11:02:00,24.9,9.4,29.03,West,270,3.4,10.5,47,-99.99,,,-99.99,WSDL version 420,2013-02-20 16:02:00,
2013-02-20 11:08:00,24.6,9.1,29.03,WNW,296,2.7,5.6,47,-99.99,,,-99.99,WSDL version 420,2013-02-20 16:08:00,
2013-02-20 11:16:00,25.4,9.4,29.06,NNW,333,3.6,5.4,46,-99.99,,,-99.99,WSDL version 420,2013-02-20 16:16:00,
2013-02-20 11:25:00,27.1,10.6,29.06,NW,323,4.2,8.1,45,-99.99,,,-99.99,WSDL version 420,2013-02-20 16:25:00,
2013-02-20 11:30:00,26.5,9.7,29.03,NW,315,5.2,12.8,44,-99.99,,,-99.99,WSDL version 420,2013-02-20 16:30:00,
2013-02-20 11:36:00,25.2,8.2,-100.00,NW,315,5.1,12.3,44,-99.99,,,-99.99,WSDL version 420,2013-02-20 16:36:00,
2013-02-20 11:42:00,25.2,8.4,29.03,WNW,301,4.5,10.7,44,-99.99,,,-99.99,WSDL version 420,2013-02-20 16:42:00,
2013-02-20 11:48:00,26.5,9.8,29.03,NNW,338,2.6,7.4,44,-99.99,,,-99.99,WSDL version 420,2013-02-20 16:48:00,
2013-02-20 11:54:00,26.6,9.3,29.03,WNW,284,3.4,7.4,43,-99.99,,,-99.99,WSDL version 420,2013-02-20 16:54:00,
2013-02-20 12:00:00,26.3,9.2,29.00,NW,315,2.7,7.2,44,-99.99,,,-99.99,WSDL version 420,2013-02-20 17:00:00,
2013-02-20 12:05:00,26.1,9.2,29.00,NW,315,3.1,5.8,44,-99.99,,,-99.99,WSDL version 420,2013-02-20 17:05:00,
2013-02-20 12:11:00,26.1,9.6,-100.00,NW,315,3.3,5.8,45,-99.99,,,-99.99,WSDL version 420,2013-02-20 17:11:00,
2013-02-20 12:18:00,25.5,8.5,-100.00,NW,323,4.3,10.1,44,-99.99,,,-99.99,WSDL version 420,2013-02-20 17:18:00,
2013-02-20 12:24:00,25.4,8.1,29.03,NNW,334,6.4,7.6,43,-99.99,,,-99.99,WSDL version 420,2013-02-20 17:24:00,
2013-02-20 12:31:00,25.7,8.4,29.03,NW,319,4.3,8.5,43,-99.99,,,-99.99,WSDL version 420,2013-02-20 17:31:00,
2013-02-20 12:39:00,26.1,8.7,29.03,NW,312,4.1,8.5,43,-99.99,,,-99.99,WSDL version 420,2013-02-20 17:39:00,
2013-02-20 12:46:00,26.1,8.8,29.03,WNW,289,3.9,7.8,43,-99.99,,,-99.99,WSDL version 420,2013-02-20 17:46:00,
2013-02-20 12:52:00,26.0,8.3,29.03,West,273,4.0,9.2,42,-99.99,,,-99.99,WSDL version 420,2013-02-20 17:52:00,
2013-02-20 12:58:00,25.5,7.7,-100.00,NW,325,7.0,9.2,42,-99.99,,,-99.99,WSDL version 420,2013-02-20 17:58:00,
2013-02-20 13:06:00,25.0,7.7,-100.00,NNW,329,5.7,7.8,43,-99.99,,,-99.99,WSDL version 420,2013-02-20 18:06:00,
2013-02-20 13:12:00,25.3,7.9,29.03,NW,319,4.0,8.5,43,-99.99,,,-99.99,WSDL version 420,2013-02-20 18:12:00,
2013-02-20 13:17:00,26.1,8.7,29.03,NW,324,3.0,7.2,43,-99.99,,,-99.99,WSDL version 420,2013-02-20 18:17:00,
2013-02-20 13:23:00,26.3,8.9,29.03,NW,304,4.0,5.6,43,-99.99,,,-99.99,WSDL version 420,2013-02-20 18:23:00,
2013-02-20 13:29:00,26.1,8.6,29.03,NW,323,3.6,9.4,43,-99.99,,,-99.99,WSDL version 420,2013-02-20 18:29:00,
2013-02-20 13:35:00,26.2,8.4,29.03,NW,312,3.6,7.8,42,-99.99,,,-99.99,WSDL version 420,2013-02-20 18:35:00,
2013-02-20 13:41:00,26.1,8.5,29.03,NW,315,3.5,7.8,43,-99.99,,,-99.99,WSDL version 420,2013-02-20 18:41:00,
2013-02-20 13:47:00,26.3,8.9,29.03,NW,308,3.8,7.2,43,-99.99,,,-99.99,WSDL version 420,2013-02-20 18:47:00,
2013-02-20 13:53:00,26.5,9.1,29.03,WNW,298,3.4,6.9,43,-99.99,,,-99.99,WSDL version 420,2013-02-20 18:53:00,
2013-02-20 13:59:00,26.7,8.8,29.03,NW,311,4.7,9.6,42,-99.99,,,-99.99,WSDL version 420,2013-02-20 18:59:00,
2013-02-20 14:04:00,26.6,8.7,29.03,NW,325,3.5,7.2,42,-99.99,,,-99.99,WSDL version 420,2013-02-20 19:04:00,
2013-02-20 14:10:00,26.9,9.0,29.03,NNW,335,2.5,7.6,42,-99.99,,,-99.99,WSDL version 420,2013-02-20 19:10:00,
2013-02-20 14:17:00,27.0,9.1,29.03,NNW,332,2.7,8.1,42,-99.99,,,-99.99,WSDL version 420,2013-02-20 19:17:00,
2013-02-20 14:22:00,26.5,8.7,29.03,NW,324,4.9,10.1,42,-99.99,,,-99.99,WSDL version 420,2013-02-20 19:22:00,
2013-02-20 14:39:00,25.9,8.5,29.06,NNW,338,3.7,6.9,43,-99.99,,,-99.99,WSDL version 420,2013-02-20 19:39:00,
2013-02-20 14:45:00,26.0,8.6,29.09,North,353,4.4,7.4,43,-99.99,,,-99.99,WSDL version 420,2013-02-20 19:45:00,
2013-02-20 14:51:00,26.2,8.8,29.09,NW,315,2.7,7.4,43,-99.99,,,-99.99,WSDL version 420,2013-02-20 19:51:00,
2013-02-20 14:57:00,26.4,8.8,29.09,NNW,334,5.0,7.6,43,-99.99,,,-99.99,WSDL version 420,2013-02-20 19:57:00,
2013-02-20 15:02:00,25.5,7.7,29.09,WNW,296,4.1,8.7,42,-99.99,,,-99.99,WSDL version 420,2013-02-20 20:02:00,
2013-02-20 15:08:00,25.7,8.2,29.09,WNW,300,2.8,8.7,43,-99.99,,,-99.99,WSDL version 420,2013-02-20 20:08:00,
2013-02-20 15:14:00,26.0,8.5,29.09,NNW,334,2.6,6.0,43,-99.99,,,-99.99,WSDL version 420,2013-02-20 20:14:00,
2013-02-20 15:21:00,26.2,8.7,29.09,NW,307,3.1,10.5,42,-99.99,,,-99.99,WSDL version 420,2013-02-20 20:21:00,
2013-02-20 15:26:00,26.0,8.2,29.09,NW,326,3.2,10.5,42,-99.99,,,-99.99,WSDL version 420,2013-02-20 20:26:00,
2013-02-20 15:32:00,25.3,7.5,29.06,NW,326,5.4,8.7,42,-99.99,,,-99.99,WSDL version 420,2013-02-20 20:32:00,
2013-02-20 15:39:00,25.3,7.6,29.06,NW,304,2.6,8.7,42,-99.99,,,-99.99,WSDL version 420,2013-02-20 20:39:00,
2013-02-20 15:45:00,25.1,7.4,29.09,NW,323,6.7,11.4,42,-99.99,,,-99.99,WSDL version 420,2013-02-20 20:45:00,
2013-02-20 15:50:00,25.2,7.4,29.09,NW,311,2.5,11.4,42,-99.99,,,-99.99,WSDL version 420,2013-02-20 20:50:00,
2013-02-20 15:56:00,25.2,7.7,29.09,NNW,331,2.7,6.5,43,-99.99,,,-99.99,WSDL version 420,2013-02-20 20:56:00,
2013-02-20 16:02:00,25.0,7.7,-100.00,West,276,3.4,6.3,43,-99.99,,,-99.99,WSDL version 420,2013-02-20 21:02:00,
2013-02-20 16:08:00,24.6,7.4,-100.00,NW,315,3.4,7.6,43,-99.99,,,-99.99,WSDL version 420,2013-02-20 21:08:00,
2013-02-20 16:14:00,24.6,7.4,29.09,WNW,299,2.3,7.6,43,-99.99,,,-99.99,WSDL version 420,2013-02-20 21:14:00,
2013-02-20 16:20:00,24.7,7.5,29.09,NW,307,2.5,4.9,44,-99.99,,,-99.99,WSDL version 420,2013-02-20 21:20:00,
2013-02-20 16:27:00,24.4,7.2,-100.00,NW,320,3.0,6.0,43,-99.99,,,-99.99,WSDL version 420,2013-02-20 21:27:00,
2013-02-20 16:33:00,24.4,7.5,-100.00,NW,326,3.0,5.8,44,-99.99,,,-99.99,WSDL version 420,2013-02-20 21:33:00,
2013-02-20 16:47:00,23.9,7.1,29.09,WNW,284,3.0,5.8,44,-99.99,,,-99.99,WSDL version 420,2013-02-20 21:47:00,
2013-02-20 16:54:00,23.9,7.1,-100.00,NNW,329,2.6,4.7,44,-99.99,,,-99.99,WSDL version 420,2013-02-20 21:54:00,
2013-02-20 17:00:00,23.6,6.9,29.12,NW,304,3.6,6.5,44,-99.99,,,-99.99,WSDL version 420,2013-02-20 22:00:00,
2013-02-20 17:06:00,23.5,7.3,29.12,NW,311,2.6,6.5,45,-99.99,,,-99.99,WSDL version 420,2013-02-20 22:06:00,
2013-02-20 17:13:00,23.0,6.7,29.12,NW,315,2.0,4.7,45,-99.99,,,-99.99,WSDL version 420,2013-02-20 22:13:00,
2013-02-20 17:19:00,23.0,7.0,29.12,WSW,253,2.6,3.8,46,-99.99,,,-99.99,WSDL version 420,2013-02-20 22:19:00,
2013-02-20 17:25:00,22.7,6.9,29.12,NW,312,3.7,6.3,46,-99.99,,,-99.99,WSDL version 420,2013-02-20 22:25:00,
2013-02-20 17:31:00,22.5,6.7,29.12,NW,308,2.6,6.5,46,-99.99,,,-99.99,WSDL version 420,2013-02-20 22:31:00,
2013-02-20 17:37:00,22.5,6.7,29.12,NW,326,2.7,6.5,46,-99.99,,,-99.99,WSDL version 420,2013-02-20 22:37:00,
2013-02-20 17:43:00,22.3,6.5,-100.00,NW,315,1.8,7.4,46,-99.99,,,-99.99,WSDL version 420,2013-02-20 22:43:00,
2013-02-20 17:48:00,22.1,6.8,29.12,NW,319,2.6,7.4,47,-99.99,,,-99.99,WSDL version 420,2013-02-20 22:48:00,
2013-02-20 17:56:00,22.0,6.9,-100.00,NW,318,4.3,8.1,48,-99.99,,,-99.99,WSDL version 420,2013-02-20 22:56:00,
2013-02-20 18:02:00,21.9,7.0,29.12,NW,318,3.3,7.8,48,-99.99,,,-99.99,WSDL version 420,2013-02-20 23:02:00,
2013-02-20 18:08:00,21.9,7.0,29.12,NW,319,2.7,5.4,48,-99.99,,,-99.99,WSDL version 420,2013-02-20 23:08:00,
2013-02-20 18:14:00,21.7,6.8,29.12,NW,311,2.6,6.0,48,-99.99,,,-99.99,WSDL version 420,2013-02-20 23:14:00,
2013-02-20 18:20:00,21.5,6.7,29.12,WNW,296,3.1,6.0,48,-99.99,,,-99.99,WSDL version 420,2013-02-20 23:20:00,
2013-02-20 18:27:00,21.3,6.7,29.12,WNW,293,2.6,8.7,49,-99.99,,,-99.99,WSDL version 420,2013-02-20 23:27:00,
2013-02-20 18:33:00,21.2,6.7,29.15,WNW,293,2.4,8.7,49,-99.99,,,-99.99,WSDL version 420,2013-02-20 23:33:00,
2013-02-20 18:39:00,21.0,6.9,29.15,NW,304,2.8,4.9,50,-99.99,,,-99.99,WSDL version 420,2013-02-20 23:39:00,
2013-02-20 18:48:00,20.7,6.6,29.15,NW,318,1.6,4.3,50,-99.99,,,-99.99,WSDL version 420,2013-02-20 23:48:00,
2013-02-20 18:54:00,20.7,7.0,29.15,NW,315,2.2,3.6,51,-99.99,,,-99.99,WSDL version 420,2013-02-20 23:54:00,
2013-02-20 19:00:00,20.5,7.1,29.15,NW,321,3.1,4.3,52,-99.99,,,-99.99,WSDL version 420,2013-02-21 00:00:00,
2013-02-20 19:06:00,20.5,7.3,29.15,NW,323,3.1,5.8,53,-99.99,,,-99.99,WSDL version 420,2013-02-21 00:06:00,
2013-02-20 19:12:00,20.5,7.6,29.15,NW,318,3.0,8.1,53,-99.99,,,-99.99,WSDL version 420,2013-02-21 00:12:00,
2013-02-20 19:18:00,20.5,7.6,29.15,NW,315,3.5,6.3,53,-99.99,,,-99.99,WSDL version 420,2013-02-21 00:18:00,
2013-02-20 19:24:00,20.7,7.8,29.15,NW,315,2.8,7.2,53,-99.99,,,-99.99,WSDL version 420,2013-02-21 00:24:00,
2013-02-20 19:30:00,20.7,8.1,29.15,NW,315,3.2,7.2,54,-99.99,,,-99.99,WSDL version 420,2013-02-21 00:30:00,
2013-02-20 19:35:00,20.8,8.3,29.15,NW,315,4.0,6.0,54,-99.99,,,-99.99,WSDL version 420,2013-02-21 00:35:00,
2013-02-20 19:41:00,20.8,8.1,29.15,NW,324,2.7,6.5,53,-99.99,,,-99.99,WSDL version 420,2013-02-21 00:41:00,
2013-02-20 19:47:00,20.8,8.3,29.15,NNW,328,3.2,6.3,54,-99.99,,,-99.99,WSDL version 420,2013-02-21 00:47:00,
2013-02-20 19:53:00,20.9,8.4,29.15,NW,315,3.4,6.5,54,-99.99,,,-99.99,WSDL version 420,2013-02-21 00:53:00,
2013-02-20 19:59:00,21.0,8.2,29.15,NNW,329,2.7,5.8,54,-99.99,,,-99.99,WSDL version 420,2013-02-21 00:59:00,
2013-02-20 20:05:00,20.9,8.4,29.15,NW,307,3.6,6.9,54,-99.99,,,-99.99,WSDL version 420,2013-02-21 01:05:00,
2013-02-20 20:12:00,20.8,8.3,29.15,NW,323,2.8,6.7,54,-99.99,,,-99.99,WSDL version 420,2013-02-21 01:12:00,
2013-02-20 20:18:00,20.8,8.2,-100.00,NW,325,5.4,6.7,54,-99.99,,,-99.99,WSDL version 420,2013-02-21 01:18:00,
2013-02-20 20:24:00,20.8,8.2,29.15,NW,315,3.3,7.4,54,-99.99,,,-99.99,WSDL version 420,2013-02-21 01:24:00,
2013-02-20 20:30:00,21.0,8.3,29.15,NNW,331,3.3,7.2,53,-99.99,,,-99.99,WSDL version 420,2013-02-21 01:30:00,
2013-02-20 20:36:00,20.9,8.0,29.15,WNW,293,6.4,11.0,53,-99.99,,,-99.99,WSDL version 420,2013-02-21 01:36:00,
2013-02-20 20:42:00,20.8,7.6,29.15,NW,315,5.6,11.0,52,-99.99,,,-99.99,WSDL version 420,2013-02-21 01:42:00,
2013-02-20 20:48:00,20.7,7.6,29.12,NW,315,3.6,8.7,53,-99.99,,,-99.99,WSDL version 420,2013-02-21 01:48:00,
2013-02-20 20:54:00,20.7,7.8,29.12,NW,326,3.8,6.3,53,-99.99,,,-99.99,WSDL version 420,2013-02-21 01:54:00,
2013-02-20 21:00:00,20.6,7.7,29.15,NW,315,2.1,4.9,53,-99.99,,,-99.99,WSDL version 420,2013-02-21 02:00:00,
2013-02-20 21:06:00,20.5,7.6,29.15,NW,309,2.7,7.4,53,-99.99,,,-99.99,WSDL version 420,2013-02-21 02:06:00,
2013-02-20 21:11:00,20.5,7.6,29.15,West,266,2.9,7.4,53,-99.99,,,-99.99,WSDL version 420,2013-02-21 02:11:00,
2013-02-20 21:17:00,20.4,7.6,29.18,WNW,293,2.1,5.8,53,-99.99,,,-99.99,WSDL version 420,2013-02-21 02:17:00,
2013-02-20 21:22:00,20.3,7.4,29.18,NW,315,4.2,6.0,53,-99.99,,,-99.99,WSDL version 420,2013-02-21 02:22:00,
2013-02-20 21:28:00,20.3,7.4,29.18,NNW,347,4.6,10.5,53,-99.99,,,-99.99,WSDL version 420,2013-02-21 02:28:00,
2013-02-20 21:34:00,20.3,7.3,29.18,NW,319,4.0,10.5,52,-99.99,,,-99.99,WSDL version 420,2013-02-21 02:34:00,
2013-02-20 21:40:00,20.3,7.4,-100.00,NNW,345,3.6,5.4,53,-99.99,,,-99.99,WSDL version 420,2013-02-21 02:40:00,
2013-02-20 21:46:00,20.3,7.3,29.18,NNW,341,2.9,8.1,53,-99.99,,,-99.99,WSDL version 420,2013-02-21 02:46:00,
2013-02-20 21:52:00,20.1,7.3,29.18,NNW,344,4.7,8.7,53,-99.99,,,-99.99,WSDL version 420,2013-02-21 02:52:00,
2013-02-20 21:58:00,20.1,7.3,29.18,NW,315,4.9,8.7,53,-99.99,,,-99.99,WSDL version 420,2013-02-21 02:58:00,
2013-02-20 22:04:00,20.0,7.2,29.18,NW,326,3.2,8.7,53,-99.99,,,-99.99,WSDL version 420,2013-02-21 03:04:00,
2013-02-20 22:10:00,19.9,7.1,29.18,NW,324,4.2,8.1,53,-99.99,,,-99.99,WSDL version 420,2013-02-21 03:10:00,
2013-02-20 22:16:00,19.9,7.1,29.21,NW,323,4.6,11.0,53,-99.99,,,-99.99,WSDL version 420,2013-02-21 03:16:00,
2013-02-20 22:21:00,19.9,7.1,-100.00,NNW,328,3.1,11.0,53,-99.99,,,-99.99,WSDL version 420,2013-02-21 03:21:00,
2013-02-20 22:27:00,19.8,7.0,-100.00,North,8,5.3,8.1,53,-99.99,,,-99.99,WSDL version 420,2013-02-21 03:27:00,
2013-02-20 22:33:00,19.8,6.9,-100.00,NW,305,2.7,8.1,53,-99.99,,,-99.99,WSDL version 420,2013-02-21 03:33:00,
2013-02-20 22:41:00,19.8,6.5,29.21,NW,315,2.5,7.8,52,-99.99,,,-99.99,WSDL version 420,2013-02-21 03:41:00,
2013-02-20 22:48:00,19.8,6.5,29.18,NW,309,2.3,4.3,52,-99.99,,,-99.99,WSDL version 420,2013-02-21 03:48:00,
2013-02-20 22:54:00,19.8,6.8,29.18,NW,326,2.2,4.3,52,-99.99,,,-99.99,WSDL version 420,2013-02-21 03:54:00,
2013-02-20 23:00:00,19.8,6.5,29.18,West,266,3.0,7.6,51,-99.99,,,-99.99,WSDL version 420,2013-02-21 04:00:00,
2013-02-20 23:06:00,19.9,6.4,29.18,NW,318,2.9,7.6,51,-99.99,,,-99.99,WSDL version 420,2013-02-21 04:06:00,
2013-02-20 23:13:00,19.9,6.7,29.18,NNW,346,2.8,6.3,52,-99.99,,,-99.99,WSDL version 420,2013-02-21 04:13:00,
2013-02-20 23:19:00,19.9,6.5,29.18,North,356,2.5,10.1,52,-99.99,,,-99.99,WSDL version 420,2013-02-21 04:19:00,
2013-02-20 23:25:00,19.9,6.5,29.18,NW,324,3.0,5.6,51,-99.99,,,-99.99,WSDL version 420,2013-02-21 04:25:00,
2013-02-20 23:31:00,19.9,6.3,29.15,NW,326,1.4,4.7,51,-99.99,,,-99.99,WSDL version 420,2013-02-21 04:31:00,
2013-02-20 23:37:00,19.8,6.2,29.15,NNW,334,1.3,5.4,51,-99.99,,,-99.99,WSDL version 420,2013-02-21 04:37:00,
2013-02-20 23:44:00,19.8,6.2,29.15,NNW,334,2.6,5.4,51,-99.99,,,-99.99,WSDL version 420,2013-02-21 04:44:00,
2013-02-20 23:52:00,19.6,6.4,29.15,NW,315,2.0,4.7,52,-99.99,,,-99.99,WSDL version 420,2013-02-21 04:52:00,
2013-02-20 23:58:00,19.6,6.1,29.15,NNW,338,3.5,6.0,51,-99.99,,,-99.99,WSDL version 420,2013-02-21 04:58:00,